STARLINK-1366, 45569

Orbit data source: Space-Track

STARLINK-1366, 45569 is a payload satellite owned by SpaceX/Seattle (US) in LEO that was launched on Wed, 22 Apr 2020 UTC via an FALCON 9 launch vehicle from the Air Force Eastern Test Range (AFETR). Payloads include a variety of satellites, spacecraft, and rockets equipped with specific instruments for various scientific and technological missions. These include communications satellites like Starlink; space stations such as the ISS; scientific satellites like the Hubble; Earth observation satellites from companies like Planet Labs, Umbra, and HawkEye 360; GPS; miniature CubeSats for education and research; and military/defense satellites.

Loading next visibility...
STARLINK-1366 details
Identifier
45569, 2020-025AQ
Orbit
LEO
Last TLE update21 hours ago
Origin
Flag of USSpaceX/Seattle (US)
ManufacturerSpaceX/Seattle
MissionOperational Commercial Communications
Bus & MotorSTARLINK, Unknown motor
Mass260 kg wet, ~248 kg dry
Launch date (UTC)
2020-04-22 (5 years ago)
Launch vehicle
FALCON 9
Launch site
Air Force Eastern Test Range (AFETR)
Object type
Payload
Rocket body
Debris
Shape & HBRBox + 1 Pan, 8.86 m
Radar Cross Section13.562 m², Large (>1 m²)

Expand to show TLE details & history

TLE from 21 hours ago
0 STARLINK-1366
1 45569U 20025AQ  24339.31455505  .00010418  00000-0  71706-3 0  9995
2 45569  53.0544 353.3223 0001434  82.3339 277.7813 15.06408558255978
Epoch: 2024-12-04T07:32Z
Definitive object data (Epoch: 2024-12-04T07:32:57.556Z)
Latitude
Longitude166.471°
Altitude547.93 km
Speed7.589 km/s
True Right ascension23h 33m 17s
True Declination0° 00' 00"
Sunlit
Object was in daylight at TLE epoch
Visualization TLE readout
Latitude49.61243°
Longitude-79.03996°
Altitude551.946 km
Speed7.592 km/s
Apparent Right ascension11h 10m 43s
Apparent Declination12° 45' 00"
Sunlit
Object is in full shadow
Visualization observer readout
Local Sidereal Time02:41:02
Azimuth54.646° ENE
Elevation-18.237°
Doppler factor1
Orbital elements
Apogee altitude548.449 km
Perigee altitude546.463 km
Semi-major axis6,925.593 km
Eccentricity0.0001434
Inclination53.0544°
RAAN353.3223°
Arg. of periapsis82.3339°
True anomaly277.76502°
Mean anomaly277.7813°
Eccentric anomaly277.77316°
Mean motion3.7658 °/min
BSTAR0.00071706
Orbital period95.6 mins
Loading maneuver chart data...
Loading historical data...
Loading historical data...
Loading historical data...
Loading historical data...
Loading historical data...
Loading historical data...
Loading historical data...

STARLINK-1366 Visibility forecast

Observer location: undefined°, undefined

Span
Click to sort rows by Start time (UTC) header in descending order
Start Az.
Max El. time (UTC)
Max El. Az.
Max El.
End time (UTC)
End Az.
4 mins2024-12-05 06:08:35.300Z310.422° NW2024-12-05 06:10:35.300Z341.655° N15.469°2024-12-05 06:12:35.300Z14.905° NNE
5 mins2024-12-05 09:30:35.300Z346.766° N2024-12-05 09:32:35.300Z37.045° NE26.466°2024-12-05 09:35:35.300Z88.657° E
6 mins2024-12-05 11:09:35.300Z289.184° WNW2024-12-05 11:11:35.300Z241.795° WSW35.184°2024-12-05 11:15:35.300Z153.502° SSE
5 mins2024-12-06 02:42:35.300Z181.85° SSW2024-12-06 02:44:35.300Z137.004° SSE28.057°2024-12-06 02:47:35.300Z74.162° E
6 mins2024-12-06 04:21:35.300Z267.634° W2024-12-06 04:24:35.300Z342.586° N31.13°2024-12-06 04:27:35.300Z35.35° NE
|